Time,TemperatureF,DewpointF,PressureIn,WindDirection,WindDirectionDegrees,WindSpeedMPH,WindSpeedGustMPH,Humidity,HourlyPrecipIn,Conditions,Clouds,dailyrainin,SoftwareType,DateUTC
2016-02-09 00:00:00,59.0,54.8,29.93,SSW,205,2.0,11.0,86,0.00,,---,0.00,VWS V15.00,2016-02-09 05:00:00,
2016-02-09 00:15:00,59.4,54.9,29.92,WSW,246,3.0,12.0,85,0.00,,---,0.00,VWS V15.00,2016-02-09 05:15:00,
2016-02-09 00:30:00,59.9,55.4,29.91,South,184,6.0,14.0,85,0.00,,---,0.00,VWS V15.00,2016-02-09 05:30:00,
2016-02-09 00:45:00,60.2,55.7,29.91,WSW,248,5.0,12.0,85,0.00,,---,0.00,VWS V15.00,2016-02-09 05:45:00,
2016-02-09 01:00:00,60.6,55.8,29.91,SSW,207,3.0,13.0,84,0.00,,---,0.00,VWS V15.00,2016-02-09 06:00:00,
2016-02-09 01:15:00,60.8,55.9,29.92,West,259,4.0,12.0,84,0.00,,---,0.00,VWS V15.00,2016-02-09 06:15:00,
2016-02-09 01:30:00,60.9,56.0,29.92,SW,217,2.0,14.0,84,0.00,,---,0.00,VWS V15.00,2016-02-09 06:30:00,
2016-02-09 01:45:00,61.4,56.5,29.91,SSW,197,5.0,13.0,84,0.00,,---,0.00,VWS V15.00,2016-02-09 06:45:00,
2016-02-09 02:00:00,61.8,56.9,29.91,SSW,210,6.0,14.0,84,0.00,,---,0.00,VWS V15.00,2016-02-09 07:00:00,
2016-02-09 02:15:00,61.9,57.0,29.90,South,188,2.0,18.0,84,0.00,,---,0.00,VWS V15.00,2016-02-09 07:15:00,
2016-02-09 02:30:00,61.9,57.3,29.90,West,272,3.0,14.0,85,0.00,,---,0.00,VWS V15.00,2016-02-09 07:30:00,
2016-02-09 02:45:00,61.7,57.2,29.90,SSW,196,16.0,17.0,85,0.00,,---,0.00,VWS V15.00,2016-02-09 07:45:00,
2016-02-09 03:00:00,61.4,57.2,29.90,WSW,248,5.0,17.0,86,0.00,,---,0.00,VWS V15.00,2016-02-09 08:00:00,
2016-02-09 03:15:00,61.0,57.1,29.90,WNW,284,6.0,17.0,87,0.00,,---,0.00,VWS V15.00,2016-02-09 08:15:00,
2016-02-09 03:30:00,60.7,56.8,29.90,SW,219,3.0,13.0,87,0.00,,---,0.00,VWS V15.00,2016-02-09 08:30:00,
2016-02-09 03:45:00,60.5,56.6,29.91,WNW,295,2.0,14.0,87,0.00,,---,0.00,VWS V15.00,2016-02-09 08:45:00,
2016-02-09 04:00:00,61.1,55.9,29.92,WSW,253,11.0,18.0,83,0.00,,---,0.00,VWS V15.00,2016-02-09 09:00:00,
2016-02-09 04:30:00,60.5,52.5,29.93,WNW,301,5.0,18.0,75,0.00,,---,0.00,VWS V15.00,2016-02-09 09:30:00,
2016-02-09 04:45:00,60.2,52.3,29.94,NW,313,4.0,19.0,75,0.00,,---,0.00,VWS V15.00,2016-02-09 09:45:00,
2016-02-09 05:00:00,59.8,51.1,29.95,WNW,300,9.0,20.0,73,0.00,,---,0.00,VWS V15.00,2016-02-09 10:00:00,
2016-02-09 05:30:00,59.1,48.2,29.95,West,275,4.0,22.0,67,0.00,,---,0.00,VWS V15.00,2016-02-09 10:30:00,
2016-02-09 05:45:00,58.7,47.4,29.95,WNW,299,8.0,16.0,66,0.00,,---,0.00,VWS V15.00,2016-02-09 10:45:00,
2016-02-09 06:00:00,58.5,46.8,29.96,WNW,283,6.0,19.0,65,0.00,,---,0.00,VWS V15.00,2016-02-09 11:00:00,
2016-02-09 06:15:00,58.2,46.5,29.97,WNW,284,4.0,21.0,65,0.00,,---,0.00,VWS V15.00,2016-02-09 11:15:00,
2016-02-09 06:30:00,57.8,46.1,29.98,West,259,9.0,20.0,65,0.00,,---,0.00,VWS V15.00,2016-02-09 11:30:00,
2016-02-09 06:45:00,57.5,46.2,29.99,West,273,2.0,15.0,66,0.00,,---,0.00,VWS V15.00,2016-02-09 11:45:00,
2016-02-09 07:00:00,57.4,45.8,29.99,WNW,288,9.0,17.0,65,0.00,,---,0.00,VWS V15.00,2016-02-09 12:00:00,
2016-02-09 07:15:00,56.3,43.9,30.01,NW,315,3.0,15.0,63,0.00,,---,0.00,VWS V15.00,2016-02-09 12:15:00,
2016-02-09 07:30:00,55.4,43.8,30.02,NW,317,8.0,14.0,65,0.00,,---,0.00,VWS V15.00,2016-02-09 12:30:00,
2016-02-09 07:45:00,55.1,43.6,30.03,NW,323,5.0,15.0,65,0.00,,---,0.00,VWS V15.00,2016-02-09 12:45:00,